Regional Weather Roundup
Issued by NWS

Home | Current Version | Previous Version | Graphics & Text | Print | Product List | Glossary On
Versions: 1 2 3 4 5 6 7 8 9 10 11 12 13 14 15 16 17 18 19 20 21 22 23 24 25 26 27 28 29 30 31 32 33 34 35 36 37 38 39 40 41 42 43 44 45 46 47 48 49 50
000
ASUS43 KLOT 242203
RWRIL

ILLINOIS REGIONAL WEATHER ROUNDUP
NATIONAL WEATHER SERVICE CHICAGO/ROMEOVILLE IL
500 PM CDT FRI MAR 24 2017

NOTE: "FAIR" INDICATES FEW OR NO CLOUDS BELOW 12,000 FEET WITH NO
SIGNIFICANT WEATHER AND/OR OBSTRUCTIONS TO VISIBILITY.

* THESE STATIONS ARE NOT UNDER NWS QUALITY CONTROL. THEY ALSO MAY NOT
  REPORT WEATHER SUCH AS PRECIPITATION OR FOG.

ILZ001-002-007-009-015-016-024-242300-
NORTHWEST ILLINOIS

CITY           SKY/WX    TMP DP  RH WIND       PRES   REMARKS
MOLINE         CLOUDY    70  44  39 W17       29.92R
STERLING*      CLOUDY    72  45  37 W16       29.91R
SAVANNA*       CLOUDY    68  48  48 NW10      29.93R
$$

ILZ003-004-008-010-011-017-018-242300-
NORTH CENTRAL ILLINOIS

CITY           SKY/WX    TMP DP  RH WIND       PRES   REMARKS
ROCKFORD       CLOUDY    74  45  35 SW7       29.92R
FREEPORT*      CLOUDY    69  46  44 NW10G17   29.94R
ROCHELLE*      CLOUDY    73  44  35 W20G28    29.92R
DE KALB*       CLOUDY    73  44  35 W15G24    29.92R
$$

ILZ005-006-012>014-019>023-242300-
NORTHEAST ILLINOIS

CITY           SKY/WX    TMP DP  RH WIND       PRES   REMARKS
CHICAGO-OHARE  CLOUDY    78  42  27 W10       29.89R
CHICAGO-MIDWAY CLOUDY    78  49  35 SW17G26   29.90R
AURORA         CLOUDY    76  43  30 W15       29.91R
LANSING*       CLOUDY    76  55  47 SW21G26   29.92R
JOLIET*        PTSUNNY   78  50  36 SW10G21   29.91S
WAUKEGAN       CLOUDY    46  38  73 N16G26    29.94R
DUPAGE AIRPORT CLOUDY    76  42  29 W12G23    29.91R
WHEELING       CLOUDY    55  44  66 NE10G22   29.94R
MORRIS*        PTSUNNY   77  51  39 SW16G24   29.91R
NORTHERLY ISL    N/A     77  41  27 SW7         N/A
$$

LMZ740>746-242300-
SOUTHERN LAKE MICHIGAN

STATION/POSITION SKY/WX   TEMP    WIND        PRES    VSBY  WAVE
                          AIR SEA DIR/SP/G                  HT/PER
                          (F)     (DEG/KT/KT) (MB)    (MI)  (FT/S)
HARRISON CRIB              78     240/ 19/ 25   N/A
BURNHAM HARBOR             77     240/ 10/ 20   N/A
CALUMET HARBOR             78     200/ 13/ 23 1012.0R
BURNS HARBOR               75     210/ 21/ 33 1013.2R
MICHIGAN CITY              73     220/ 25/ 28   N/A
$$

ILZ025>027-034>036-040-047-049-050-058-095>099-242300-
WEST-CENTRAL ILLINOIS

CITY           SKY/WX    TMP DP  RH WIND       PRES   REMARKS
QUINCY         LGT RAIN  59  56  89 NW12      29.93F
GALESBURG*     CLOUDY    67  49  52 W16G24    29.92R
MACOMB*        CLOUDY    65  52  62 W20       29.96R
PITTSFIELD*    CLOUDY    73  50  44 W7        29.94S
$$

ILZ028>032-037-038-041>044-048-051>054-059>061-242300-
CENTRAL ILLINOIS

CITY           SKY/WX    TMP DP  RH WIND       PRES   REMARKS
PONTIAC        MOSUNNY   75  56  50 SW17      29.95R
BLOOMINGTON    CLOUDY    73  56  54 S22G30    29.94S
DECATUR        PTSUNNY   73  55  53 S26G33    29.97S
PEORIA         MOSUNNY   74  45  35 W6        29.92R
SPRINGFIELD    CLOUDY    77  52  41 SW14      29.94S
TAYLORVILLE    NOT AVBL
$$

ILZ033-039-045-046-055>057-062-063-242300-
EAST-CENTRAL ILLINOIS

CITY           SKY/WX    TMP DP  RH WIND       PRES   REMARKS
CHAMPAIGN      MOSUNNY   74  54  49 S23G39    29.98R
RANTOUL*       CLOUDY    74  57  55 SW18G28   29.98S
MATTOON        CLOUDY    71  56  58 S17G25    30.01S
PARIS*         PTSUNNY   72  56  58 S29       30.03S
$$

ILZ079-100>102-242300-
SOUTHWEST ILLINOIS

CITY           SKY/WX    TMP DP  RH WIND       PRES   REMARKS
ALTON          CLOUDY    72  54  53 S14G23    29.96R
BELLEVILLE     CLOUDY    73  56  54 S9        29.96S
CAHOKIA*       CLOUDY    75  53  46 S9        29.96R
SPARTA*        CLOUDY    72  56  57 S17G28    29.99S
$$

ILZ064>066-069>071-074>076-080>082-084>086-088>090-092>094-242300-
SOUTH-CENTRAL ILLINOIS

CITY           SKY/WX    TMP DP  RH WIND       PRES   REMARKS
CARBONDALE     CLOUDY    71  58  63 S15G25    30.00F
CAIRO*         CLOUDY    72  58  61 SE21      30.03F
EFFINGHAM*     CLOUDY    72  57  60 S13G21    30.03S
MARION         PTSUNNY   72  57  60 S18G26    30.03F
MT. VERNON     PTSUNNY   72  57  59 S15G25    30.02S
CENTRALIA*     PTSUNNY   73  58  60 S23       30.00S
SALEM*         CLOUDY    73  55  53 S20G29    30.00F
$$

ILZ067-068-072-073-078-083-087-091-242300-
SOUTHEAST ILLINOIS

CITY           SKY/WX    TMP DP  RH WIND       PRES   REMARKS
LAWRENCEVILLE  PTSUNNY   73  56  54 S22       30.06S
FLORA*         PTSUNNY   73  57  58 S18       30.03F
FAIRFIELD*     CLOUDY    72  57  58 S10       30.02F
HARRISBURG*    MOSUNNY   73  57  58 S14G23    30.05F
ROBINSON*      CLOUDY    71  56  59 S16G24    30.06S
CARMI*         PTSUNNY   72  57  60 S18G25    30.05S
$$

ABBREVIATIONS USED IN REMARKS
   TC - TEMPERATURE IN CELSIUS
  WCI - WIND CHILL INDEX
   HX - HEAT INDEX
  VSB - VISIBILITY
$$




USA.gov is the U.S. government's official web portal to all federal, state and local government web resources and services.